Location: Unnamed
(51.5169°N, 0.1311°W)
Time: 21:33:42
(UTC+01:00)

Tiros 1 - Pass Details

Date: 10 August 2024
Orbit: 623 x 655 km, 48.4° (Epoch: 16 September)

Event Time Altitude Azimuth Distance (km) Brightness Sun altitude
Rises 11:12:45 0° 278° (W) 2,979 10.2 47.4°
Reaches altitude 10° 11:15:15 10° 270° (W) 2,063 9.6 47.6°
Maximum altitude 11:19:33 35° 205° (SSW) 1,054 9.0 48.1°
Drops below altitude 10° 11:23:49 10° 140° (SE) 2,041 10.7 48.5°
Sets 11:26:17 0° 131° (SE) 2,943 11.2 48.7°
